Location: Unspecified
(0.0000°N, 0.0000°E)
Time: 10:53:21
(UTC+00:00)

ACS3 Solar Sail - Pass Details

Date: 19 May 2025
Orbit: 935 x 1009 km, 97.5° (Epoch: 13 May)

Event Time Altitude Azimuth Distance (km) Brightness Sun altitude
Rises 04:08:52 0° 48° (NE) 3,659 5.9 -25.2°
Reaches altitude 10° 04:12:34 10° 71° (ENE) 2,730 5.2 -24.3°
Maximum altitude 04:15:47 15° 103° (ESE) 2,416 4.5 -23.6°
Drops below altitude 10° 04:19:01 10° 134° (SE) 2,759 4.4 -22.8°
Sets 04:22:45 0° 157° (SSE) 3,722 4.9 -22.0°
